Wind_Speed
39 40 41 42 44 45 46 46 46 46 47 48 50 51 52 52 52 54 55 54 52 50 51 52 53 55 55 53 52 49 47 46 47 46 46 45 43 41 41 41 39 36
39 39 40 41 43 44 45 46 46 47 47 48 49 50 50 51 52 53 53 52 52 51 51 51 52 54 54 52 50 48 47 47 48 46 45 44 41 40 41 40 38 35
37 39 40 41 41 43 44 45 46 48 48 47 49 50 50 50 50 51 52 52 52 52 52 52 52 52 52 50 48 47 49 49 48 46 45 43 40 40 41 40 38 36
36 37 39 40 40 40 42 44 45 47 47 47 49 50 50 50 50 50 51 51 52 52 53 53 53 51 50 48 47 48 50 50 48 46 44 42 40 41 42 40 38 37
35 35 37 38 38 38 39 42 43 45 46 47 49 50 49 49 50 51 50 50 51 52 52 53 53 52 49 47 48 49 50 49 48 46 44 42 41 42 43 40 38 38
33 33 34 35 35 35 37 39 41 43 45 47 47 48 48 49 50 51 50 49 49 49 50 51 52 52 50 48 48 49 50 50 47 45 44 42 42 43 42 40 39 38
31 31 31 32 33 34 35 37 39 41 44 45 45 46 48 49 50 51 50 49 48 48 47 48 50 51 51 50 49 49 50 49 46 44 42 41 42 43 42 40 39 39
29 29 29 29 30 32 33 35 37 39 41 42 44 45 46 48 49 50 50 49 48 47 46 46 47 49 50 50 49 49 49 48 45 43 42 42 43 43 41 40 40 39
25 27 28 27 28 30 31 32 34 36 38 39 42 44 45 46 47 48 48 47 47 46 46 46 46 46 47 48 49 49 48 47 45 44 44 43 43 42 41 41 41 40
22 23 25 26 26 28 29 30 31 33 35 36 39 42 43 44 45 45 44 44 44 45 46 46 45 44 44 46 47 47 47 46 45 45 45 43 41 41 41 41 42 41
20 20 22 23 24 26 27 28 28 30 32 34 37 40 42 43 43 43 43 43 43 44 45 44 43 43 43 44 45 46 46 47 46 46 44 42 40 40 41 42 42 41
20 19 20 20 21 22 23 25 26 28 29 31 34 37 39 41 41 41 42 42 43 43 43 42 41 41 42 43 44 45 47 47 46 46 44 41 39 39 41 42 42 41
21 20 20 19 19 19 20 21 23 25 27 28 30 33 36 38 39 40 41 42 42 42 41 40 40 41 41 42 43 44 46 47 47 46 44 41 39 39 42 43 43 41
22 21 21 20 19 19 19 20 21 23 25 26 27 30 34 35 37 38 39 40 41 41 40 39 39 40 41 42 43 43 45 47 47 46 44 42 40 40 42 44 43 42
21 21 22 21 20 19 18 18 19 21 22 24 25 28 31 32 34 35 37 39 40 40 40 39 40 41 42 42 42 43 44 46 47 47 45 43 41 41 43 45 43 42
21 20 21 21 21 20 19 17 18 19 20 22 24 26 27 29 31 34 36 38 39 40 40 40 41 41 41 40 41 42 43 45 47 47 47 45 42 42 44 45 44 42
23 19 18 19 21 21 20 18 16 17 18 20 22 24 25 27 29 33 36 37 39 39 40 41 41 40 39 39 40 41 42 44 46 48 47 45 43 43 44 45 44 43
26 21 17 16 18 20 21 19 17 16 17 18 21 22 24 26 28 31 33 35 37 38 39 40 40 39 39 39 39 40 41 43 45 47 47 46 44 43 43 44 44 43
27 24 19 15 15 18 20 20 19 17 16 17 18 20 22 25 27 29 30 32 34 36 38 39 39 39 39 39 38 39 40 41 43 45 46 46 45 44 44 44 44 43
25 26 22 18 15 14 17 20 20 18 16 16 16 18 20 23 25 27 29 31 32 34 35 36 37 37 37 37 37 38 39 40 42 43 44 44 43 43 44 45 44 43
23 25 25 22 18 14 14 17 19 19 17 16 16 17 19 21 23 25 27 29 31 32 33 34 35 34 35 35 36 36 37 38 40 41 42 42 42 41 42 43 43 42
21 23 24 24 21 17 14 14 16 19 18 17 16 16 18 19 21 23 24 26 28 30 32 33 34 33 33 33 34 35 35 37 39 40 41 41 41 40 40 41 41 40
20 21 23 24 23 21 17 14 14 16 19 19 18 17 17 18 19 21 23 24 26 28 31 32 33 32 32 33 34 34 36 38 40 41 41 41 40 39 39 40 39 38
20 20 21 22 23 23 20 17 14 14 17 20 20 19 18 17 17 19 21 23 25 26 28 30 31 31 31 32 33 35 36 38 40 41 41 40 39 39 38 38 38 38
21 19 19 21 22 23 22 20 17 14 14 17 21 21 20 18 17 18 21 22 24 25 26 27 29 30 31 32 33 34 35 37 39 42 42 40 39 38 38 38 38 37
21 20 19 20 21 22 23 22 20 17 14 15 18 21 22 20 18 18 19 21 22 24 25 26 27 28 30 31 32 33 35 37 40 42 41 40 39 38 38 38 38 37
Wind_Direction
247 247 247 247 247 247 247 247 246 246 246 245 245 245 245 244 242 241 240 239 237 235 233 232 233 234 235 236 238 240 243 246 248 246 245 245 246 246 246 246 245 243
248 246 246 246 246 246 246 246 246 246 245 245 245 246 247 246 244 243 243 241 240 237 235 234 234 234 236 237 239 241 243 245 246 245 244 244 244 244 245 245 243 242
251 247 245 245 245 246 246 246 246 246 246 246 247 247 246 247 246 245 244 243 241 240 237 236 236 236 236 238 240 242 243 245 245 243 242 242 243 244 244 243 241 240
252 249 246 245 244 245 247 247 246 245 246 246 246 246 246 246 247 246 245 243 242 240 239 238 238 238 237 238 239 241 243 244 244 242 241 241 242 243 242 240 239 238
253 250 247 245 244 245 246 247 246 245 245 245 245 245 246 245 246 245 244 242 241 240 240 239 239 239 238 237 237 240 242 243 242 240 239 239 241 242 240 237 236 235
256 250 247 245 243 244 244 245 245 245 245 244 244 245 245 245 244 244 244 243 242 241 241 241 240 239 238 236 236 238 240 240 240 238 238 239 242 241 238 236 235 235
263 253 248 245 243 242 242 243 244 246 246 246 245 244 244 243 243 243 243 243 243 243 243 242 241 240 239 236 235 236 238 238 238 237 237 239 241 239 236 234 235 236
272 260 251 246 243 241 241 241 243 244 245 246 246 244 243 243 243 242 242 243 244 244 244 243 242 241 240 237 235 234 236 237 236 236 236 238 240 237 234 233 234 235
279 267 256 248 244 242 241 241 242 244 245 245 245 245 244 243 242 242 242 243 244 244 244 243 241 240 240 238 234 233 234 235 234 234 235 237 239 236 232 232 233 234
284 272 261 253 247 244 243 242 243 244 244 244 245 245 244 243 242 242 242 242 242 242 242 242 240 238 237 234 232 231 232 233 233 234 235 238 239 235 232 233 233 233
288 275 264 257 252 249 246 245 244 244 243 243 244 244 244 243 242 241 241 240 239 239 240 240 239 237 234 231 229 229 230 231 231 233 235 238 238 235 233 233 233 233
294 281 268 259 255 252 250 248 246 245 244 243 244 244 244 243 242 241 240 239 238 238 238 238 237 236 233 230 228 227 227 228 229 231 234 238 239 235 233 233 234 233
302 290 278 266 258 252 249 248 247 246 245 244 245 245 245 244 242 241 241 240 239 238 237 237 236 234 233 231 229 227 226 227 227 229 232 236 237 235 233 233 233 232
311 298 287 276 266 256 248 245 245 245 245 245 244 244 245 244 243 242 241 241 240 240 238 236 235 233 232 231 229 226 225 225 226 227 230 233 234 234 233 233 232 232
323 308 295 285 274 264 254 247 245 244 244 243 241 242 244 245 245 244 243 242 241 240 239 237 235 233 231 229 227 225 225 225 225 225 228 231 232 232 231 232 232 232
337 320 305 292 281 271 260 250 246 244 244 242 240 240 241 243 243 243 242 242 241 240 239 237 235 233 231 230 228 226 226 225 224 224 225 229 232 231 231 231 230 231
349 336 318 301 288 277 265 255 248 244 243 243 241 239 238 238 240 241 241 241 241 241 240 239 237 235 232 230 228 227 228 227 224 222 223 227 231 231 231 230 229 230
353 349 337 317 298 284 272 260 252 247 244 244 243 241 238 236 236 238 240 241 241 241 240 239 239 237 234 232 229 227 228 228 226 224 223 226 229 231 230 229 229 229
351 353 352 340 318 297 281 268 258 252 249 247 245 243 241 239 236 235 237 239 239 240 240 239 238 237 235 233 230 228 227 228 227 225 225 227 229 230 229 228 227 228
347 351 356 354 343 321 297 279 266 257 251 249 248 245 243 242 239 237 236 236 237 238 239 239 238 236 235 233 231 229 227 227 227 227 227 228 231 231 229 227 226 226
343 346 352 357 356 345 321 295 277 262 252 248 248 248 247 244 241 240 239 237 236 237 238 238 237 235 233 232 230 228 226 226 227 227 228 229 231 231 229 226 225 225
341 342 347 354 358 355 345 320 293 273 259 249 245 247 250 247 243 241 241 240 238 237 236 236 235 232 230 229 228 226 225 225 226 227 227 229 229 227 225 224 224 225
341 342 343 349 355 357 355 344 318 291 273 260 250 246 247 249 248 244 241 240 240 238 236 235 233 229 227 225 224 223 222 222 223 225 226 227 225 222 220 221 222 223
339 342 343 345 351 355 356 351 340 316 290 273 262 252 245 245 249 249 245 241 238 238 237 236 232 226 224 224 222 221 221 221 222 224 224 221 219 216 216 218 220 223
334 340 343 343 346 352 355 353 346 335 312 288 274 263 252 244 243 248 249 244 240 238 236 235 232 226 222 222 222 222 222 221 221 221 218 214 211 211 214 217 220 222
330 335 341 343 344 348 352 353 349 341 327 304 284 272 261 252 245 246 249 247 243 240 236 234 231 225 222 222 222 222 221 219 218 217 213 209 208 211 215 218 219 219
Height
1408 1408 1408 1409 1410 1411 1413 1414 1415 1416 1418 1419 1421 1422 1425 1428 1431 1433 1435 1439 1442 1444 1446 1448 1450 1452 1455 1459 1462 1464 1467 1468 1470 1472 1473 1475 1476 1478 1479 1480 1482 1483
1403 1403 1404 1404 1405 1406 1407 1409 1411 1411 1412 1414 1416 1418 1420 1423 1426 1428 1431 1435 1438 1440 1443 1444 1445 1447 1450 1453 1456 1460 1462 1463 1465 1467 1469 1470 1472 1474 1475 1477 1478 1480
1399 1399 1399 1399 1399 1401 1402 1404 1406 1406 1407 1409 1411 1413 1415 1418 1420 1423 1426 1430 1432 1435 1438 1440 1441 1443 1445 1448 1452 1455 1456 1458 1460 1462 1464 1466 1468 1470 1471 1473 1475 1476
1394 1394 1394 1394 1394 1396 1398 1399 1401 1401 1403 1404 1405 1407 1410 1413 1416 1418 1421 1424 1427 1430 1432 1435 1437 1438 1441 1443 1447 1449 1450 1452 1455 1458 1460 1462 1464 1465 1467 1469 1471 1472
1390 1389 1389 1389 1390 1391 1393 1393 1394 1396 1398 1399 1400 1402 1405 1408 1410 1412 1415 1418 1421 1424 1427 1429 1432 1434 1436 1438 1441 1443 1445 1447 1450 1453 1455 1458 1460 1461 1463 1465 1467 1469
1386 1385 1385 1385 1385 1386 1387 1388 1389 1391 1392 1394 1395 1398 1400 1402 1404 1406 1409 1412 1416 1419 1421 1424 1427 1429 1432 1434 1435 1437 1439 1441 1444 1448 1451 1453 1455 1456 1458 1461 1463 1465
1383 1382 1381 1381 1381 1381 1382 1383 1384 1386 1387 1389 1391 1393 1395 1397 1399 1401 1404 1407 1411 1413 1416 1418 1421 1424 1427 1429 1430 1432 1434 1436 1440 1443 1446 1448 1450 1451 1453 1456 1459 1460
1380 1379 1378 1377 1377 1377 1377 1378 1379 1381 1383 1385 1386 1388 1390 1392 1394 1396 1400 1403 1405 1408 1411 1413 1415 1418 1421 1424 1426 1428 1429 1432 1436 1438 1441 1443 1444 1446 1449 1452 1454 1456
1377 1376 1375 1374 1373 1373 1373 1373 1375 1376 1378 1380 1382 1383 1385 1387 1389 1392 1395 1398 1400 1403 1405 1407 1409 1412 1415 1418 1421 1423 1426 1428 1431 1433 1436 1438 1439 1442 1445 1448 1450 1452
1375 1374 1373 1371 1370 1369 1369 1369 1371 1372 1373 1375 1377 1379 1381 1383 1385 1387 1390 1393 1395 1397 1399 1401 1404 1407 1410 1412 1415 1419 1422 1424 1427 1429 1431 1433 1436 1438 1441 1443 1446 1448
1373 1371 1370 1369 1368 1367 1366 1366 1367 1367 1369 1370 1372 1374 1376 1379 1381 1383 1385 1387 1388 1391 1393 1395 1398 1402 1404 1407 1410 1414 1417 1419 1422 1424 1427 1430 1432 1434 1437 1439 1442 1445
1371 1369 1368 1366 1365 1364 1363 1363 1363 1364 1365 1366 1368 1370 1372 1374 1377 1379 1381 1382 1383 1385 1387 1390 1393 1397 1400 1402 1406 1409 1411 1414 1417 1420 1424 1426 1428 1430 1433 1435 1438 1442
1369 1368 1366 1364 1363 1361 1361 1360 1360 1360 1361 1362 1364 1366 1368 1370 1372 1374 1376 1378 1379 1381 1383 1386 1388 1391 1395 1398 1401 1403 1406 1409 1412 1416 1419 1422 1424 1426 1429 1432 1435 1438
1368 1366 1365 1363 1361 1359 1358 1357 1357 1357 1358 1359 1360 1362 1363 1365 1368 1370 1372 1374 1376 1377 1379 1381 1384 1386 1389 1392 1395 1398 1400 1404 1408 1411 1415 1417 1420 1422 1425 1428 1431 1434
1366 1365 1363 1362 1360 1358 1356 1355 1354 1354 1355 1355 1356 1358 1359 1362 1364 1366 1368 1370 1371 1373 1375 1377 1379 1381 1383 1386 1390 1393 1396 1399 1403 1406 1409 1412 1414 1417 1420 1424 1427 1430
1366 1363 1362 1360 1359 1357 1355 1353 1352 1352 1352 1352 1353 1354 1356 1358 1360 1362 1364 1366 1367 1369 1371 1373 1374 1376 1379 1382 1386 1389 1392 1395 1397 1401 1404 1407 1410 1412 1415 1419 1422 1425
1366 1362 1360 1358 1357 1356 1354 1352 1351 1349 1349 1350 1350 1351 1352 1354 1356 1358 1359 1361 1363 1365 1367 1368 1370 1373 1376 1379 1382 1385 1388 1390 1393 1396 1400 1403 1405 1407 1410 1414 1418 1421
1366 1362 1359 1357 1355 1354 1353 1351 1350 1348 1347 1347 1347 1348 1350 1351 1352 1354 1356 1358 1360 1361 1363 1364 1367 1370 1373 1375 1378 1381 1384 1387 1390 1392 1395 1398 1400 1403 1407 1410 1414 1417
1366 1362 1358 1355 1353 1352 1351 1350 1349 1347 1346 1345 1345 1346 1347 1348 1349 1350 1352 1354 1356 1357 1359 1361 1364 1366 1369 1372 1374 1377 1380 1383 1386 1389 1392 1394 1397 1399 1402 1406 1409 1413
1366 1362 1359 1355 1352 1351 1349 1348 1347 1346 1345 1344 1344 1344 1344 1344 1346 1347 1348 1350 1352 1354 1356 1358 1360 1363 1365 1368 1371 1374 1377 1379 1382 1385 1388 1391 1393 1396 1398 1401 1405 1408
1365 1362 1359 1355 1351 1349 1347 1347 1346 1345 1344 1343 1342 1342 1341 1342 1343 1344 1345 1347 1348 1350 1352 1354 1356 1359 1362 1365 1367 1370 1373 1376 1378 1381 1384 1387 1389 1392 1395 1398 1402 1405
1363 1361 1358 1355 1351 1348 1346 1345 1344 1343 1342 1341 1340 1339 1339 1340 1340 1341 1342 1343 1345 1347 1348 1350 1352 1355 1358 1361 1364 1366 1369 1372 1374 1376 1379 1382 1385 1388 1391 1395 1398 1401
1363 1360 1357 1354 1351 1347 1344 1343 1341 1341 1341 1340 1338 1338 1337 1337 1338 1338 1339 1340 1341 1343 1344 1346 1348 1351 1355 1357 1360 1363 1365 1367 1369 1371 1374 1377 1380 1384 1388 1391 1394 1397
1362 1359 1356 1353 1350 1346 1343 1341 1339 1338 1338 1338 1337 1336 1335 1335 1336 1336 1336 1337 1338 1339 1341 1343 1344 1347 1351 1353 1356 1359 1361 1363 1365 1367 1370 1373 1376 1380 1384 1387 1390 1394
1362 1358 1355 1352 1349 1346 1343 1340 1337 1336 1335 1335 1335 1335 1334 1333 1333 1333 1333 1334 1335 1336 1338 1340 1341 1344 1347 1350 1352 1355 1357 1359 1361 1363 1365 1368 1372 1377 1381 1384 1387 1390
1361 1357 1353 1350 1347 1345 1342 1339 1336 1335 1333 1333 1333 1332 1332 1331 1331 1330 1331 1331 1333 1334 1335 1337 1339 1341 1343 1346 1348 1351 1353 1355 1357 1358 1361 1365 1369 1373 1377 1380 1383 1386